STPSAT-6

Last updated on Thu Oct 30 2025 00:02:52 GMT+0000 (Coordinated Universal Time)

1 49817U 21118A 25302.52848454 -.00000035 00000+0 00000+0 0 9991 2 49817 0.0135 129.5893 0001972 147.3667 199.6588 1.00269868 14269
UTC large
Height (km)
Speed (km/s)
/
Latitude / Longitude
Inclination (degrees)
Orbital Period (minutes)
Azimuth
Elevation
Range (km)
Doppler Factor

Next 0 passes for location: London (51.5072 / 0.1276)

Sorry there are no passes over London.